This demonstration page uses our WeatherBlox Daily Observations layout. Learn more.

Left ArrowRight Arrow

36.17497, -115.13722

Hourly Observations for April 1, 2016

Temp ( °F °C ) Dew Point ( °F °C ) Humidity (%) Winds ( mph kmh ) Pressure ( in mb ) Visibility ( mi km ) Precip ( " mm )
12:53 am 00:53 Cloudy 62 16.7 32 0 32 32 E 12 19 30.04 1017 10 16.0934 0 0
1:53 am 01:53 Clear 60 15.6 32 0 35 35 WNW 7 11 30.05 1018 10 16.0934 0 0
2:53 am 02:53 Clear 58 14.4 30 -1.1 35 35 Calm 30.06 1018 10 16.0934 0 0
3:53 am 03:53 Clear 58 14.4 30 -1.1 35 35 Calm 30.06 1018 10 16.0934 0 0
4:53 am 04:53 Clear 57 13.9 29 -1.7 34 34 N 9 15 30.06 1018 10 16.0934 0 0
5:53 am 05:53 Clear 58 14.4 29 -1.7 33 33 NNW 15 24 30.08 1019 10 16.0934 0 0
6:53 am 06:53 Sunny 57 13.9 29 -1.7 34 34 N 13 20 30.1 1019 10 16.0934 0 0
7:53 am 07:53 Sunny 59 15 30 -1.1 33 33 N 12 19 30.14 1021 10 16.0934 0 0
8:53 am 08:53 Sunny 64 17.8 30 -1.1 28 28 N 8 13 30.14 1021 10 16.0934 0 0
9:53 am 09:53 Sunny 66 18.9 29 -1.7 25 25 VRB 3 6 30.16 1021 10 16.0934 0 0
10:53 am 10:53 Sunny 69 20.6 29 -1.7 22 22 NE 7 11 30.16 1021 10 16.0934 0 0
11:53 am 11:53 Sunny 70 21.1 27 -2.8 20 20 N 8 13 30.14 1021 10 16.0934 0 0
12:53 pm 12:53 Sunny 72 22.2 26 -3.3 18 18 NE 6 9 30.12 1020 10 16.0934 0 0
1:53 pm 13:53 Sunny 73 22.8 26 -3.3 17 17 N 8 13 30.1 1019 10 16.0934 0 0
2:53 pm 14:53 Sunny 73 22.8 26 -3.3 17 17 SE 6 9 30.09 1019 10 16.0934 0 0
3:53 pm 15:53 Partly Cloudy 75 23.9 27 -2.8 17 17 S 5 7 30.06 1018 10 16.0934 0 0
4:53 pm 16:53 Sunny 73 23 19 -7 13 13 NW 15 24 29.77 1008 10 16.0934 0 0
5:53 pm 17:53 Sunny 75 23.9 27 -2.8 17 17 ESE 9 15 30.06 1018 10 16.0934 0 0
6:53 pm 18:53 Sunny 73 22.8 27 -2.8 18 18 ESE 9 15 30.07 1018 10 16.0934 0 0
7:53 pm 19:53 Clear 70 21.1 26 -3.3 19 19 ESE 6 9 30.09 1019 10 16.0934 0 0
8:53 pm 20:53 Clear 69 20.6 27 -2.8 21 21 ENE 7 11 30.11 1020 10 16.0934 0 0
9:53 pm 21:53 Clear 67 19.4 27 -2.8 22 22 NE 5 7 30.13 1020 10 16.0934 0 0
10:53 pm 22:53 Clear 66 18.9 25 -3.9 21 21 NE 7 11 30.14 1021 10 16.0934 0 0
11:53 pm 23:53 Clear 63 17.2 26 -3.3 25 25 W 5 7 30.14 1021 10 16.0934 0 0

Powered by AerisWeather